#timestamp,LO_Frequency,Hit 
1505365215.3,286047003.0,N
1505365235.1,286047001.5,N
1505365255.9,286047005.0,N
1505365275.7,286047008.8,N
1505365295.5,286047007.2,N
1505365315.4,286047007.5,N
1505365335.2,286047005.7,N
1505365355.0,286047005.5,N
1505365355.9,286047005.5,N
1505365375.8,286047002.1,N
1505365395.6,286047001.2,N
1505365415.4,286047000.3,N
1505365435.3,286047001.9,N
1505365455.1,286047004.4,N
1505365456.0,286047004.4,N
1505365475.8,286047003.3,N
1505365495.7,286047003.1,N
1505365515.5,286047005.2,N
1505365535.3,286047004.2,N
1505365555.2,286047002.6,N
1505365575.9,286047003.6,N
1505365595.7,286047003.2,N
1505365615.5,286047002.0,N
1505365635.4,286047000.4,N
1505365655.2,286047005.8,N
1505365675.0,286047009.2,P
1505365676.0,286047009.2,P
1505365695.8,286047005.7,N
1505365715.6,286047004.4,N
1505365735.4,286047002.6,N
1505365755.3,286047001.2,N
1505365775.1,286047001.0,N
1505365795.8,286046999.0,N
1505365815.7,286047000.8,N
1505365835.5,286047000.3,N
1505365855.3,286046999.9,N
1505365875.2,286046998.7,N
1505365895.9,286047000.7,N
1505365915.7,286047002.5,N
1505365935.6,286047002.1,N
1505365955.4,286047006.0,N
1505365975.2,286047001.0,N
1505365995.0,286046999.1,N
1505365996.0,286046999.1,N
1505366015.8,286046998.3,N
1505366035.6,286046995.3,N
1505366055.4,286046995.8,N
1505366075.3,286046994.3,N
1505366095.1,286046996.3,N
1505366115.8,286046993.7,N
1505366135.7,286046995.9,N
1505366155.5,286046995.3,N
1505366175.3,286046993.3,N
1505366195.2,286046996.4,N
1505366215.9,286046995.8,N
1505366235.7,286046995.7,N
1505366255.6,286046997.6,N
1505366275.4,286046995.5,N
1505366295.2,286046995.3,N
1505366315.0,286046998.0,N
1505366316.0,286046998.0,N
1505366335.8,286046997.3,N
1505366355.6,286046996.0,N
1505366375.4,286046994.4,N
1505366395.3,286046992.2,N
1505366415.1,286046990.9,P
1505366435.8,286046995.8,N
1505366455.7,286046998.9,N
1505366475.5,286046998.4,N
1505366495.3,286047002.0,N
1505366515.2,286047003.0,N
1505366535.9,286047002.0,N
1505366555.7,286046999.4,N
1505366575.6,286046996.3,N
1505366595.4,286046993.8,N
1505366615.2,286046996.0,N
1505366635.1,286046995.7,N
1505366636.0,286046995.7,N
1505366655.8,286046995.3,N
1505366675.6,286046996.5,N
1505366695.5,286046999.1,N
1505366715.3,286046995.4,N
1505366735.1,286047000.0,N
1505366755.8,286047003.9,N
1505366775.7,286047000.0,N
1505366795.5,286046997.1,N
1505366815.3,286046993.4,N
1505366835.2,286046998.0,N
1505366855.9,286046995.7,N
1505366875.7,286046997.2,N
1505366895.6,286047001.1,N
1505366915.4,286046999.7,N
1505366935.2,286046999.7,N
1505366955.1,286047000.6,N
1505366956.0,286047000.6,N
1505366975.8,286047002.2,N
1505366995.6,286047001.4,N
1505367015.5,286047003.9,N
1505367035.3,286047003.1,N
1505367055.1,286047005.1,N
1505367075.8,286047005.6,N
1505367095.7,286047004.8,N
1505367115.5,286047001.5,N
1505367135.3,286047000.9,N
1505367155.2,286047000.3,N
1505367175.9,286046999.9,N
1505367195.7,286047002.2,N
1505367215.6,286046999.7,N
1505367235.4,286047002.3,N
1505367255.2,286046999.7,N
1505367275.1,286046999.0,N
1505367276.0,286046999.0,N
1505367295.8,286046996.9,N
1505367315.6,286046994.9,N
1505367335.5,286046999.1,N
1505367355.3,286046999.3,N
1505367375.1,286047001.8,N
1505367395.8,286047001.7,N
1505367415.7,286047001.5,N
1505367435.5,286047001.0,N
1505367455.3,286047002.7,N
1505367475.2,286046999.3,N
1505367495.0,286046997.3,N
1505367495.9,286046997.3,N
1505367515.7,286046999.6,N
1505367535.6,286046994.2,N
1505367555.4,286046994.2,N
1505367575.2,286046998.9,N
1505367595.1,286047003.8,N
1505367596.0,286047003.8,N
1505367615.8,286047004.7,N
1505367635.6,286047002.7,N
1505367655.5,286046997.1,N
1505367675.3,286046994.9,N
1505367695.1,286046999.2,N
1505367715.9,286046993.5,N
1505367735.7,286046994.0,N
1505367755.5,286046993.5,N
1505367775.3,286046997.2,N
1505367795.2,286046997.4,N
1505367815.0,286046999.6,N
1505367815.9,286046999.6,N
1505367835.7,286046998.7,N
1505367855.6,286046996.8,N
1505367875.4,286046997.6,N
1505367895.2,286046996.3,N
1505367915.1,286046997.1,N
1505367916.0,286046997.1,N
1505367935.8,286047001.7,N
1505367955.6,286047002.4,N
1505367975.5,286046998.2,N
1505367995.3,286047002.5,N
1505368015.1,286046999.7,N
1505368035.9,286046995.1,N
1505368055.7,286046995.2,N
1505368075.5,286046998.3,N
1505368095.3,286047000.2,N
1505368115.2,286047000.0,N
1505368135.0,286047001.1,N
1505368135.9,286047001.1,N
1505368155.7,286047001.9,N
1505368175.6,286047004.4,N
1505368195.4,286047007.1,N
1505368215.2,286046998.2,N
1505368235.1,286046998.1,N
1505368236.0,286046998.1,N
1505368255.8,286047001.8,N
1505368275.6,286047002.1,N
1505368295.5,286046997.0,N
1505368315.3,286046996.9,N
1505368335.1,286047000.5,N
1505368355.9,286047003.8,N
1505368375.7,286047001.9,N
1505368395.5,286047003.1,N
1505368415.4,286047005.6,N
1505368435.2,286047001.5,N
1505368455.0,286047001.5,N
1505368455.9,286047001.5,N
1505368475.8,286047002.0,N
1505368495.6,286047002.3,N
1505368515.4,286047002.7,N
1505368535.2,286047002.3,N
1505368555.1,286047000.4,N
1505368556.0,286047000.4,N
1505368575.8,286047002.3,N
1505368595.6,286046998.4,N
1505368615.5,286046999.2,N
1505368635.3,286046999.0,N
1505368655.1,286046995.2,N
1505368675.9,286046994.1,N
1505368695.7,286046995.0,N
1505368715.5,286046993.5,N
1505368735.4,286046999.6,N
1505368755.2,286046998.9,N
1505368775.0,286046998.6,N
1505368775.9,286046998.6,N
1505368795.8,286046997.5,N
